TimeMST,TemperatureF,Dew PointF,Humidity,Sea Level PressureIn,VisibilityMPH,Wind Direction,Wind SpeedMPH,Gust SpeedMPH,PrecipitationIn,Events,Conditions,WindDirDegrees,DateUTC
12:53 AM,39.0,33.1,79,30.11,10.0,Calm,Calm,-,N/A,,Overcast,0,2011-11-08 07:53:00
1:53 AM,37.4,32.0,81,30.07,10.0,NNE,9.2,-,N/A,,Overcast,30,2011-11-08 08:53:00
2:41 AM,37.4,30.2,75,30.07,10.0,NE,9.2,-,N/A,,Overcast,50,2011-11-08 09:41:00
2:53 AM,37.0,30.9,79,30.11,10.0,NE,9.2,-,N/A,,Overcast,50,2011-11-08 09:53:00
3:53 AM,37.0,30.9,79,30.09,10.0,NE,11.5,-,N/A,,Overcast,40,2011-11-08 10:53:00
4:53 AM,37.0,30.9,79,30.12,10.0,NE,9.2,-,N/A,,Overcast,40,2011-11-08 11:53:00
5:53 AM,36.0,30.0,79,30.14,10.0,NE,10.4,-,N/A,,Overcast,40,2011-11-08 12:53:00
6:53 AM,36.0,30.0,79,30.16,10.0,NNE,9.2,-,N/A,,Overcast,20,2011-11-08 13:53:00
7:53 AM,37.9,30.0,73,30.18,10.0,NNE,11.5,-,N/A,,Overcast,20,2011-11-08 14:53:00
8:10 AM,39.2,30.2,70,30.13,10.0,NNE,11.5,-,N/A,,Overcast,20,2011-11-08 15:10:00
8:53 AM,42.1,32.0,67,30.17,10.0,NNE,12.7,-,N/A,,Mostly Cloudy,20,2011-11-08 15:53:00
9:23 AM,42.8,32.0,66,30.13,10.0,North,11.5,-,N/A,,Scattered Clouds,10,2011-11-08 16:23:00
9:53 AM,41.0,30.9,67,30.17,10.0,North,13.8,-,N/A,,Clear,10,2011-11-08 16:53:00
10:53 AM,45.0,30.0,56,30.16,10.0,NNE,15.0,-,N/A,,Clear,20,2011-11-08 17:53:00
11:53 AM,46.0,26.1,46,30.13,10.0,NNE,13.8,20.7,N/A,,Clear,30,2011-11-08 18:53:00
12:53 PM,46.9,28.0,48,30.12,10.0,North,11.5,-,N/A,,Mostly Cloudy,360,2011-11-08 19:53:00
1:53 PM,48.9,28.0,44,30.12,10.0,NNE,10.4,-,N/A,,Mostly Cloudy,30,2011-11-08 20:53:00
2:53 PM,48.9,27.0,43,30.13,10.0,NNE,8.1,-,N/A,,Mostly Cloudy,20,2011-11-08 21:53:00
3:53 PM,46.0,28.0,50,30.15,10.0,North,8.1,-,N/A,,Clear,350,2011-11-08 22:53:00
4:53 PM,39.9,27.0,60,30.18,10.0,NNW,8.1,-,N/A,,Clear,340,2011-11-08 23:53:00
5:53 PM,37.9,25.0,60,30.22,10.0,NW,5.8,-,N/A,,Clear,320,2011-11-09 00:53:00
6:53 PM,35.1,24.1,64,30.23,10.0,WNW,5.8,-,N/A,,Clear,290,2011-11-09 01:53:00
7:53 PM,35.1,25.0,67,30.26,10.0,NW,9.2,-,N/A,,Clear,310,2011-11-09 02:53:00
8:53 PM,34.0,26.1,73,30.27,10.0,NW,13.8,-,N/A,,Partly Cloudy,310,2011-11-09 03:53:00
9:53 PM,33.8,26.6,75,30.24,10.0,NW,12.7,-,N/A,,Overcast,320,2011-11-09 04:53:00
10:53 PM,33.1,25.0,72,30.31,10.0,NW,11.5,-,N/A,,Clear,320,2011-11-09 05:53:00
11:53 PM,32.0,25.0,75,30.32,10.0,NW,11.5,-,N/A,,Partly Cloudy,320,2011-11-09 06:53:00